This is the latest recevied weather packets stored in our database for station/object KA1JKB. If no packets are shown the sender has not sent any weather packets the latest 10 day(s).
| Time | Temp. | Humidity | Pressure | Rain* | Wind** | Luminosity | Snow |
|---|---|---|---|---|---|---|---|
| 1788039435 | 24.44° C | 73% | 1017.7 hPa | 0 mm | - | 163 W/m² | - |
| 1788039130 | 25° C | 73% | 1017.4 hPa | 0 mm | - | 149 W/m² | - |
| 1788038826 | 25° C | 72% | 1017.6 hPa | 0 mm | - | 187 W/m² | - |
| 1788038521 | 25° C | 72% | 1017.8 hPa | 0 mm | - | 280 W/m² | - |
| 1788038219 | 25° C | 70% | 1017.6 hPa | 0 mm | - | 177 W/m² | - |
| 1788037915 | 25° C | 69% | 1017.3 hPa | 0 mm | - | 183 W/m² | - |
| 1788037609 | 25° C | 67% | 1017.6 hPa | 0 mm | - | 205 W/m² | - |
| 1788037305 | 25° C | 69% | 1017.7 hPa | 0 mm | - | 234 W/m² | - |
| 1788037004 | 25° C | 69% | 1017.6 hPa | 0 mm | - | 210 W/m² | - |
| 1788036700 | 25° C | 68% | 1017.6 hPa | 0 mm | - | 232 W/m² | - |
| 1788036397 | 25° C | 68% | 1018.2 hPa | 0 mm | - | 267 W/m² | - |
| 1788036096 | 25° C | 67% | 1018.1 hPa | 0 mm | - | 291 W/m² | - |
| 1788035796 | 25.56° C | 69% | 1018.3 hPa | 0 mm | - | 234 W/m² | - |
| 1788035492 | 25.56° C | 67% | 1018.2 hPa | 0 mm | - | 204 W/m² | - |
| 1788035186 | 25.56° C | 68% | 1018.2 hPa | 0 mm | - | 249 W/m² | - |
| 1788034883 | 25.56° C | 67% | 1018.4 hPa | 0 mm | - | 254 W/m² | - |
| 1788034578 | 26.11° C | 64% | 1018.4 hPa | 0 mm | - | 285 W/m² | - |
| 1788034274 | 26.11° C | 67% | 1018.4 hPa | 0 mm | - | 339 W/m² | - |
| 1788033974 | 25.56° C | 67% | 1018.8 hPa | 0 mm | - | 357 W/m² | - |
| 1788033669 | 25.56° C | 68% | 1018.7 hPa | 0 mm | - | 324 W/m² | - |
| 1788033368 | 25° C | 69% | 1018.8 hPa | 0 mm | - | 262 W/m² | - |
| 1788033063 | 25° C | 64% | 1018.7 hPa | 0 mm | - | 215 W/m² | - |
| 1788032763 | 25.56° C | 66% | 1018.7 hPa | 0 mm | - | 225 W/m² | - |
| 1788032458 | 26.11° C | 64% | 1018.7 hPa | 0 mm | - | 252 W/m² | - |
| 1788032154 | 26.11° C | 64% | 1019 hPa | 0 mm | - | 301 W/m² | - |
* Rain latest hour (hover to see other rain measurements)
** Current wind speed in m/s (hover to see current wind gust speed)